Regional Weather Roundup
Issued by NWS

Home | Current Version | Previous Version | Graphics & Text | Print | Product List | Glossary On
Versions: 1 2 3 4 5 6 7 8 9 10 11 12 13 14 15 16 17 18 19 20 21 22 23 24 25 26 27 28 29 30 31 32 33 34 35 36 37 38 39 40 41 42 43 44 45 46 47 48 49
000
ASUS45 KCYS 080010
RWRWY

WYOMING REGIONAL WEATHER ROUNDUP
NATIONAL WEATHER SERVICE CHEYENNE WY
500 PM MST SUN FEB 07 2016

NOTE:  "FAIR" INDICATES FEW OR NO CLOUDS BELOW 12,000 FEET
WITH NO SIGNIFICANT WEATHER AND/OR OBSTRUCTIONS TO VISIBILITY.

WYZ001-080100-
YELLOWSTONE NATIONAL PARK

CITY           SKY/WX    TMP DP  RH WIND       PRES   REMARKS
LK YELLOWSTONE   N/A     27  10  49 W8        30.48R WCI  19
6HR MIN TEMP:  23; 6HR MAX TEMP:  32;

W YELLOWSTONE  NOT AVBL

$$
WYZ002>013-054>058-071-098>099-080100-
NORTHERN WYOMING

CITY           SKY/WX    TMP DP  RH WIND       PRES   REMARKS
JACKSON        CLEAR     36   7  30 W17G24    30.48R WCI  25
CODY           FAIR      36  14  41 NE6       30.40R WCI  31
GREYBULL       FAIR      38  12  34 NW8       30.41R WCI  32
6HR MIN TEMP:  38; 6HR MAX TEMP:  41;

WORLAND        FAIR      34  15  46 SW5       30.43R WCI  30
6HR MIN TEMP:  34; 6HR MAX TEMP:  38;

SHERIDAN       FAIR      35  15  44 N16       30.40S WCI  25
6HR MIN TEMP:  34; 6HR MAX TEMP:  37;

BUFFALO        FAIR      30  14  51 N15G25    30.36R WCI  19
6HR MIN TEMP:  30; 6HR MAX TEMP:  32;

GILLETTE       FAIR      30  10  43 NW23G30   30.35R WCI  17
6HR MIN TEMP:  30; 6HR MAX TEMP:  33;

HULETT         FAIR      32  10  40 NW18G31   30.32R WCI  20
NEWCASTLE      FAIR      32   5  32 NW24G37   30.30S WCI  19

$$
WYZ014>020-022>026-101>103-080100-
CENTRAL WYOMING

CITY           SKY/WX    TMP DP  RH WIND       PRES   REMARKS
BIG PINEY      FAIR      34  16  47 N15       30.46R WCI  24
6HR MIN TEMP:  33; 6HR MAX TEMP:  37;

PINEDALE       FAIR      32  18  55 W22G28    30.43R WCI  19
DUBOIS         FAIR      32   9  37 NW12      30.42R WCI  23
LANDER         FAIR      30  13  49 CALM      30.38R
6HR MIN TEMP:  30; 6HR MAX TEMP:  34;

RIVERTON       FAIR      29  14  53 SE5       30.40R WCI  24
6HR MIN TEMP:  29; 6HR MAX TEMP:  32;

CASPER         FAIR      25  15  66 W7        30.39R WCI  17
6HR MIN TEMP:  23; 6HR MAX TEMP:  31;

DOUGLAS        MOCLDY    29  14  53 NW18G26     N/A  WCI  16
6HR MIN TEMP:  29; 6HR MAX TEMP:  31;


$$
WYZ021-027>030-104>119-080100-
SOUTHERN WYOMING

CITY           SKY/WX    TMP DP  RH WIND       PRES   REMARKS
EVANSTON       FAIR      28  18  66 SW12      30.53R WCI  18
6HR MIN TEMP:  28; 6HR MAX TEMP:  32;

FORT BRIDGER   CLEAR     32  21  64 SW21      30.54R WCI  20
ROCK SPRINGS   FAIR      31  21  66 W23       30.44R WCI  18
6HR MIN TEMP:  30; 6HR MAX TEMP:  33;

DIXON          FAIR      28  16  61 CALM      30.49R
RAWLINS        FAIR      30  21  69 W29G36    30.36R WCI  15
6HR MIN TEMP:  26; 6HR MAX TEMP:  32;

SARATOGA       FAIR      28  21  74 W23G31    30.38S WCI  14
LARAMIE          N/A     25  17  72 N9        30.29R WCI  15
6HR MIN TEMP:  24; 6HR MAX TEMP:  31;

CHEYENNE       FAIR      26  15  63 N18G28    30.27R WCI  13
6HR MIN TEMP:  26; 6HR MAX TEMP:  31;

TORRINGTON     CLOUDY    31  14  49 NW20      30.32R WCI  19
6HR MIN TEMP:  31; 6HR MAX TEMP:  35;

PINE BLUFFS    CLOUDY    28  18  64 N24G33    30.30R WCI  14

$$



USA.gov is the U.S. government's official web portal to all federal, state and local government web resources and services.